Grand Canyon, AZ

1:10 PM MST on April 27, 2017 (GMT -0700)
Grand Canyon National Park

Weather History for KGCN - January, 2012

Change the Weather History Date:

Sunday, January 8, 2012

  Actual Average Record
Temperature  
Mean Temperature 26 °F -  
Max Temperature 41 °F 42 °F 61 °F (2002)
Min Temperature 12 °F 15 °F -9 °F (1989)
Degree Days  
Heating Degree Days 38    
Moisture  
Dew Point 9 °F    
Average Humidity 53    
Maximum Humidity 84    
Minimum Humidity 20    
Precipitation  
Precipitation 0.00 in - - ()
Sea Level Pressure  
Sea Level Pressure 30.17 in    
Wind  
Wind Speed 6 mph (NE)    
Max Wind Speed 14 mph    
Max Gust Speed 20 mph    
Visibility 10 miles    
Events      
Averages and records for this station are not official NWS values.
T = Trace of Precipitation, MM = Missing Value Source: NWS Daily Summary

Daily Weather History Graph

Daily Weather History Graph

Search for Another Location

Airport or City:

Trip Planner

Search our weather history database for the weather conditions in past years. The results will help you decide how hot, cold, wet, or windy it might be!

Date:

Astronomy

Jan. 08, 2012 Rise Set
Actual Time 7:39 AM MST 5:31 PM MST
Civil Twilight 7:11 AM MST 5:59 PM MST
Nautical Twilight 6:39 AM MST 6:31 PM MST
Astronomical Twilight 6:08 AM MST 7:02 PM MST
Moon 5:17 PM MST (1/8) 7:00 AM MST (1/8)
Length of Visible Light 10h 47m
Length of Day
9h 51m
Full, 100% of the Moon is Illuminated
Jan 8
Full
Jan 9
Full
Jan 16
Last Quarter
Jan 23
New
Jan 30
First Quarter

Hourly Weather History & Observations

Time (MST) Temp. Windchill Dew Point Humidity Pressure Visibility Wind Dir Wind Speed Gust Speed Precip Events Conditions
12:54 AM 30.0 °F 21.1 °F 17.1 °F 59% 30.00 in 10.0 mi NE 10.4 mph - N/A   Clear
1:54 AM 27.0 °F 20.5 °F 16.0 °F 63% 30.02 in 10.0 mi NNE 5.8 mph - N/A   Clear
2:54 AM 21.2 °F 14.9 °F 14.0 °F 74% 30.08 in 10.0 mi NNE 4.6 mph - N/A   Clear
3:54 AM 21.0 °F 14.6 °F 14.0 °F 74% 30.06 in 10.0 mi NE 4.6 mph - N/A   Clear
4:54 AM 18.0 °F - 12.0 °F 78% 30.10 in 10.0 mi Calm Calm - N/A   Clear
5:54 AM 14.0 °F - 10.0 °F 84% 30.14 in 10.0 mi Calm Calm - N/A   Clear
6:54 AM 12.0 °F - 8.1 °F 84% 30.19 in 10.0 mi Calm Calm - N/A   Clear
7:54 AM 15.1 °F - 9.0 °F 77% 30.19 in 10.0 mi Calm Calm - N/A   Clear
8:54 AM 23.0 °F - 17.1 °F 78% 30.20 in 10.0 mi Calm Calm - N/A   Clear
9:54 AM 35.1 °F 27.4 °F 9.0 °F 34% 30.17 in 10.0 mi NE 10.4 mph - N/A   Clear
10:54 AM 37.9 °F 30.9 °F 8.1 °F 29% 30.13 in 10.0 mi NE 10.4 mph 19.6 mph N/A   Clear
11:54 AM 39.0 °F 32.3 °F 7.0 °F 27% 30.14 in 10.0 mi NNE 10.4 mph - N/A   Clear
12:54 PM 39.9 °F 32.1 °F 6.1 °F 25% 30.10 in 10.0 mi ENE 13.8 mph - N/A   Clear
1:54 PM 41.0 °F 33.5 °F 5.0 °F 23% 30.11 in 10.0 mi NE 13.8 mph - N/A   Clear
2:54 PM 41.0 °F 34.3 °F 3.0 °F 21% 30.12 in 10.0 mi NNE 11.5 mph 19.6 mph N/A   Clear
3:54 PM 39.9 °F 33.9 °F 1.9 °F 20% 30.14 in 10.0 mi NNE 9.2 mph - N/A   Clear
4:54 PM 37.0 °F 31.6 °F 3.9 °F 25% 30.18 in 10.0 mi NE 6.9 mph - N/A   Clear
5:54 PM 25.0 °F - 3.9 °F 41% 30.28 in 10.0 mi Calm Calm - N/A   Clear
6:54 PM 21.9 °F - 7.0 °F 53% 30.32 in 10.0 mi Calm Calm - N/A   Clear
7:54 PM 19.0 °F - 6.1 °F 57% 30.34 in 10.0 mi Calm Calm - N/A   Clear
8:54 PM 17.1 °F 10.0 °F 7.0 °F 65% 30.33 in 10.0 mi NE 4.6 mph - N/A   Clear
9:54 PM 16.0 °F 8.8 °F 8.1 °F 71% 30.29 in 10.0 mi NE 4.6 mph - N/A   Clear
10:54 PM 28.9 °F 21.1 °F 7.0 °F 40% 30.23 in 10.0 mi NNE 8.1 mph - N/A   Clear
11:54 PM 19.4 °F 12.8 °F 8.6 °F 63% 30.26 in 10.0 mi NE 4.6 mph - N/A   Clear